Temp
10 11 11 11 11 11 12 12 11 13 15 10 11 12 11 11 11 11 10 10 10 10 10 10 10 10 10 10 10 10 9 8 9 9 9 10 10 10 10 10 9 9 9
10 10 10 11 11 11 12 12 12 13 14 11 10 11 11 11 11 10 10 10 10 9 10 9 10 10 10 10 10 9 9 8 8 9 9 10 9 10 10 10 9 9 9
9 10 10 10 10 11 11 12 12 12 13 10 10 10 10 10 10 10 10 10 9 10 9 9 9 9 9 9 9 9 9 8 8 8 8 9 9 9 10 9 9 9 8
6 8 9 10 10 10 10 11 12 12 11 10 10 10 10 10 10 9 9 9 9 9 9 9 9 9 9 9 9 9 8 8 8 8 8 9 9 8 8 9 8 7 7
4 6 7 8 8 10 10 10 10 12 11 10 10 9 9 9 9 9 9 9 9 9 9 9 9 9 9 9 9 8 9 8 7 7 8 8 8 8 8 8 7 7 7
2 4 4 6 7 8 9 9 9 10 10 10 10 9 9 9 9 9 9 9 9 9 9 9 9 8 9 9 8 8 8 8 8 8 8 8 8 8 8 8 7 7 6
0 1 2 2 3 4 6 8 8 7 9 9 9 8 9 10 9 8 8 9 8 8 9 9 9 9 8 8 8 8 8 8 8 8 8 8 8 8 8 8 7 7 7
-1 -1 -0 1 1 2 3 2 3 3 6 8 8 7 9 10 9 8 8 8 8 8 8 8 8 8 8 8 8 8 8 8 8 8 8 8 8 8 7 7 7 6 6
-2 -2 -1 -1 -0 1 3 2 2 0 0 5 6 6 7 7 7 7 6 7 7 8 7 7 7 7 8 7 8 9 8 8 8 7 7 8 7 7 7 6 6 5 4
-3 -3 -2 -1 -1 -1 -0 0 0 1 0 0 2 3 4 4 4 3 5 6 6 6 6 5 6 6 6 6 6 6 6 6 6 6 7 6 6 5 5 5 4 3 3
-4 -3 -3 -2 -2 -1 -1 -1 -1 -0 0 0 0 0 1 1 1 1 2 3 4 4 3 2 2 2 3 3 3 3 3 2 2 3 2 2 2 2 2 2 1 1 2
-4 -4 -3 -3 -3 -3 -2 -2 -2 -2 -2 -2 -2 -1 -1 -2 -1 -1 -1 0 -0 1 0 -1 -1 -0 -0 0 1 0 -0 -1 -1 -0 -1 -0 -1 -1 -1 -1 -1 -1 -0
-5 -5 -5 -4 -4 -4 -4 -4 -3 -3 -3 -3 -3 -3 -4 -4 -4 -3 -3 -2 -1 -2 -3 -3 -2 -2 -2 -2 -1 -2 -3 -4 -3 -3 -3 -3 -3 -3 -3 -2 -2 -2 -2
-5 -5 -5 -5 -5 -5 -4 -5 -5 -5 -4 -4 -5 -5 -5 -5 -5 -4 -4 -3 -3 -3 -4 -4 -4 -3 -3 -3 -4 -4 -4 -4 -4 -4 -4 -4 -4 -5 -4 -4 -5 -5 -4
-6 -6 -5 -5 -5 -6 -6 -7 -7 -6 -6 -5 -6 -5 -5 -5 -6 -5 -5 -5 -5 -5 -4 -4 -4 -5 -5 -5 -5 -6 -6 -6 -5 -5 -5 -5 -5 -5 -5 -5 -6 -6 -5
-6 -6 -7 -7 -6 -6 -7 -7 -7 -7 -7 -6 -6 -6 -6 -6 -6 -6 -5 -5 -5 -6 -5 -5 -5 -6 -6 -6 -6 -7 -6 -6 -6 -6 -7 -7 -7 -7 -7 -7 -7 -7 -7
-7 -7 -7 -7 -7 -7 -8 -8 -8 -9 -8 -7 -8 -8 -8 -8 -7 -7 -7 -7 -6 -7 -6 -6 -7 -7 -7 -7 -7 -7 -7 -7 -7 -8 -8 -8 -8 -8 -8 -8 -8 -8 -8
-8 -8 -8 -8 -8 -8 -8 -8 -8 -8 -8 -9 -9 -9 -9 -9 -9 -8 -7 -8 -7 -8 -7 -8 -8 -9 -9 -9 -9 -8 -8 -8 -9 -9 -9 -9 -9 -9 -9 -9 -10 -10 -10
-9 -9 -9 -10 -9 -10 -9 -9 -9 -9 -9 -9 -9 -10 -9 -10 -9 -9 -9 -9 -8 -8 -9 -9 -9 -10 -10 -10 -10 -10 -10 -10 -10 -10 -10 -10 -10 -11 -11 -11 -11 -12 -12
-10 -10 -11 -11 -11 -10 -10 -10 -10 -11 -11 -11 -11 -11 -11 -11 -11 -10 -10 -10 -10 -10 -11 -11 -11 -11 -11 -11 -11 -11 -11 -11 -11 -11 -11 -12 -12 -12 -13 -13 -13 -13 -14
-11 -11 -12 -12 -12 -12 -12 -12 -12 -12 -12 -13 -12 -12 -12 -12 -12 -12 -12 -12 -12 -13 -13 -13 -12 -12 -12 -12 -12 -12 -12 -12 -13 -13 -13 -13 -13 -14 -14 -14 -14 -14 -15
-12 -12 -12 -13 -13 -13 -13 -13 -13 -14 -14 -14 -14 -14 -14 -14 -14 -14 -14 -14 -14 -14 -14 -14 -14 -13 -13 -13 -13 -13 -13 -14 -14 -14 -14 -14 -14 -15 -15 -15 -15 -16 -16
-13 -13 -14 -14 -14 -14 -14 -15 -15 -15 -15 -15 -16 -16 -16 -16 -16 -16 -16 -15 -15 -15 -15 -15 -15 -15 -15 -15 -15 -15 -15 -15 -15 -15 -15 -15 -16 -16 -16 -16 -16 -17 -17
-14 -14 -15 -15 -15 -15 -15 -16 -16 -16 -16 -16 -17 -17 -17 -17 -17 -17 -17 -17 -17 -17 -17 -17 -16 -16 -16 -16 -16 -16 -16 -16 -16 -16 -16 -16 -16 -17 -17 -17 -17 -17 -17
-15 -16 -16 -16 -16 -16 -17 -17 -17 -17 -17 -18 -18 -18 -18 -18 -18 -18 -19 -18 -18 -18 -18 -18 -17 -17 -17 -17 -17 -17 -17 -16 -16 -16 -17 -17 -17 -18 -18 -18 -18 -18 -18
-17 -17 -17 -18 -18 -18 -18 -18 -18 -18 -18 -19 -19 -19 -19 -19 -19 -19 -19 -20 -20 -19 -19 -19 -19 -19 -18 -18 -18 -18 -18 -18 -17 -17 -18 -18 -18 -18 -18 -19 -19 -19 -19
Height
1363 1366 1367 1369 1372 1375 1378 1383 1386 1391 1396 1409 1415 1415 1420 1423 1427 1432 1435 1437 1438 1441 1444 1446 1448 1451 1452 1454 1457 1461 1463 1465 1469 1477 1482 1488 1494 1499 1504 1508 1511 1514 1515
1364 1363 1365 1367 1371 1374 1377 1382 1384 1388 1395 1410 1412 1414 1419 1421 1423 1426 1429 1431 1433 1435 1438 1439 1441 1443 1441 1446 1448 1451 1455 1460 1466 1470 1476 1482 1488 1493 1498 1501 1503 1506 1509
1364 1366 1366 1369 1369 1376 1378 1379 1381 1383 1388 1404 1408 1412 1414 1415 1418 1421 1424 1427 1429 1430 1431 1432 1434 1433 1433 1437 1439 1443 1449 1455 1461 1467 1471 1477 1482 1486 1489 1493 1496 1500 1504
1367 1367 1366 1368 1370 1372 1377 1378 1378 1380 1383 1400 1404 1406 1409 1411 1413 1417 1420 1422 1424 1425 1425 1424 1424 1424 1426 1427 1431 1435 1441 1448 1455 1462 1468 1472 1477 1480 1483 1486 1491 1494 1499
1369 1369 1367 1368 1369 1370 1371 1374 1378 1377 1383 1394 1398 1401 1404 1407 1410 1413 1416 1417 1418 1419 1419 1418 1417 1417 1419 1421 1426 1430 1435 1443 1450 1456 1461 1465 1470 1473 1476 1481 1486 1490 1493
1376 1372 1370 1369 1369 1368 1366 1369 1364 1375 1383 1388 1393 1397 1400 1404 1408 1410 1411 1412 1413 1414 1414 1414 1414 1415 1416 1418 1422 1427 1431 1437 1443 1449 1454 1458 1463 1466 1471 1475 1479 1481 1485
1382 1376 1375 1372 1371 1369 1368 1366 1368 1364 1378 1385 1388 1393 1395 1399 1404 1406 1407 1408 1409 1410 1410 1410 1411 1411 1413 1416 1420 1422 1428 1435 1440 1445 1448 1453 1458 1462 1466 1468 1472 1474 1476
1390 1385 1381 1377 1376 1375 1375 1373 1373 1370 1373 1381 1385 1390 1393 1397 1399 1403 1405 1406 1406 1407 1407 1408 1409 1411 1413 1414 1416 1420 1426 1429 1435 1439 1444 1448 1452 1455 1458 1461 1464 1468 1471
1396 1393 1389 1386 1381 1380 1378 1380 1377 1384 1373 1376 1382 1388 1390 1394 1396 1401 1403 1403 1403 1404 1405 1406 1408 1409 1412 1415 1419 1421 1424 1428 1432 1435 1437 1442 1445 1448 1451 1455 1458 1462 1464
1404 1401 1397 1393 1389 1387 1385 1385 1385 1385 1382 1382 1384 1386 1389 1393 1396 1401 1402 1400 1400 1402 1403 1404 1406 1408 1410 1413 1416 1418 1420 1423 1427 1430 1432 1436 1440 1443 1446 1450 1453 1456 1459
1413 1409 1404 1400 1397 1394 1392 1390 1389 1389 1388 1390 1389 1388 1390 1395 1399 1402 1402 1400 1400 1400 1403 1404 1406 1408 1409 1412 1415 1418 1420 1422 1424 1428 1431 1434 1436 1440 1442 1447 1451 1454 1455
1420 1415 1411 1408 1406 1403 1401 1400 1398 1398 1397 1392 1394 1395 1397 1402 1402 1404 1402 1401 1402 1403 1404 1407 1409 1412 1413 1414 1417 1418 1422 1425 1428 1430 1433 1433 1438 1441 1442 1445 1449 1453 1454
1426 1421 1418 1416 1414 1412 1411 1410 1410 1409 1408 1407 1404 1405 1410 1411 1411 1410 1407 1407 1407 1407 1409 1410 1413 1415 1417 1418 1420 1423 1425 1429 1429 1433 1436 1439 1443 1443 1448 1448 1452 1454 1455
1431 1429 1426 1424 1423 1421 1420 1419 1419 1418 1417 1417 1418 1418 1417 1417 1416 1416 1414 1414 1415 1415 1418 1418 1419 1420 1420 1421 1425 1427 1430 1434 1435 1437 1440 1443 1445 1447 1448 1450 1453 1456 1457
1437 1434 1432 1431 1429 1429 1428 1426 1426 1425 1425 1424 1424 1424 1424 1422 1422 1421 1420 1421 1422 1423 1422 1424 1424 1426 1428 1426 1429 1433 1434 1436 1438 1440 1443 1446 1449 1450 1451 1452 1455 1456 1458
1441 1439 1437 1435 1434 1433 1433 1432 1431 1431 1430 1429 1429 1429 1425 1425 1426 1426 1424 1425 1426 1428 1428 1429 1429 1430 1432 1432 1431 1435 1438 1440 1442 1444 1446 1448 1450 1451 1452 1453 1454 1456 1458
1445 1443 1442 1441 1439 1438 1438 1437 1436 1435 1435 1433 1433 1431 1431 1431 1429 1427 1427 1426 1427 1427 1430 1432 1431 1432 1432 1433 1433 1435 1438 1441 1444 1446 1448 1450 1451 1452 1452 1452 1454 1456 1458
1450 1449 1446 1445 1444 1442 1440 1440 1440 1439 1438 1437 1435 1434 1434 1432 1430 1429 1429 1430 1429 1431 1433 1433 1434 1436 1436 1436 1435 1437 1439 1441 1444 1446 1448 1450 1451 1452 1453 1453 1455 1456 1456
1453 1452 1451 1450 1447 1445 1443 1442 1442 1441 1439 1438 1438 1438 1436 1435 1433 1432 1432 1434 1433 1434 1435 1436 1437 1437 1438 1438 1438 1439 1440 1442 1444 1446 1447 1449 1449 1451 1453 1454 1453 1454 1455
1456 1455 1454 1452 1450 1449 1447 1445 1444 1443 1442 1441 1440 1438 1437 1437 1436 1437 1437 1437 1436 1438 1437 1438 1439 1438 1438 1439 1440 1440 1442 1443 1444 1445 1446 1447 1449 1450 1451 1451 1452 1453 1454
1459 1458 1458 1456 1453 1451 1449 1447 1446 1445 1444 1442 1441 1440 1439 1438 1439 1440 1439 1438 1438 1439 1439 1439 1439 1437 1438 1439 1439 1441 1442 1443 1444 1445 1445 1446 1447 1448 1449 1449 1450 1452 1453
1459 1457 1456 1454 1452 1450 1449 1448 1447 1446 1445 1444 1443 1442 1441 1441 1440 1439 1439 1439 1439 1439 1439 1439 1438 1437 1437 1438 1439 1440 1441 1442 1443 1444 1445 1445 1445 1446 1447 1448 1449 1450 1451
1458 1456 1454 1453 1452 1451 1450 1449 1448 1448 1447 1446 1445 1444 1442 1441 1440 1439 1439 1438 1438 1437 1437 1437 1436 1436 1436 1437 1438 1439 1439 1440 1441 1442 1442 1443 1444 1445 1445 1446 1447 1449 1449
1457 1455 1454 1453 1451 1450 1449 1449 1448 1447 1447 1446 1445 1444 1443 1441 1440 1439 1438 1437 1436 1435 1434 1434 1433 1434 1434 1435 1436 1436 1437 1438 1438 1440 1441 1442 1442 1443 1444 1445 1446 1446 1446
1456 1454 1452 1451 1450 1448 1448 1447 1446 1445 1445 1444 1443 1442 1441 1440 1439 1438 1436 1435 1435 1434 1433 1432 1432 1432 1433 1433 1434 1435 1435 1436 1437 1438 1439 1439 1440 1441 1442 1443 1443 1443 1444
1454 1453 1451 1450 1448 1447 1446 1445 1444 1443 1443 1442 1441 1439 1439 1438 1437 1436 1435 1434 1433 1432 1432 1431 1431 1431 1431 1432 1432 1433 1434 1434 1435 1436 1436 1437 1438 1438 1439 1440 1440 1441 1441
Wind_Speed
4 6 8 15 15 20 22 21 22 18 22 32 28 30 28 25 23 25 25 23 23 24 25 27 29 31 36 35 37 34 39 39 32 32 29 27 27 29 31 29 27 25 26
10 5 2 7 11 13 17 20 19 24 19 26 26 23 22 21 21 22 22 23 25 24 24 25 29 32 32 34 36 37 37 41 34 30 34 34 30 29 30 31 31 28 27
12 5 5 8 8 13 15 14 14 18 19 22 22 20 20 19 20 22 22 23 24 22 21 25 29 31 34 36 39 40 42 40 34 34 29 30 29 29 30 31 30 28 28
14 5 2 6 9 11 14 21 21 22 25 27 23 22 21 19 18 18 18 16 15 17 19 21 26 29 36 39 44 43 46 40 36 34 30 30 29 29 27 28 29 26 24
16 11 7 4 4 17 17 22 24 27 29 26 23 21 19 17 16 17 16 15 14 18 17 15 17 19 26 30 40 43 41 39 37 38 34 33 31 30 30 28 25 22 22
21 15 12 5 4 8 22 20 29 29 31 27 23 21 17 15 14 13 15 13 13 14 14 12 13 22 30 39 42 41 45 38 41 37 33 37 37 37 32 30 27 26 25
26 20 17 17 12 7 5 15 25 30 31 28 24 20 17 14 13 12 11 12 14 12 12 10 10 12 30 32 38 44 41 43 37 35 36 35 30 30 32 33 34 36 37
29 28 25 24 20 18 9 12 18 23 29 27 21 17 12 13 12 10 12 11 11 12 13 12 13 10 22 34 38 37 42 43 41 36 31 29 30 29 30 29 28 30 30
31 29 27 25 24 22 21 17 15 8 19 22 18 14 12 10 12 11 11 11 12 12 13 14 14 14 15 21 25 25 28 30 31 32 30 30 31 27 26 27 29 29 26
30 28 26 25 24 24 23 21 18 16 15 17 17 14 11 8 9 10 11 12 12 12 12 12 14 13 15 20 20 22 28 26 26 28 30 27 27 26 25 23 21 22 21
25 25 26 26 26 24 21 20 19 18 15 17 19 18 15 12 11 8 8 10 11 14 13 12 10 12 13 14 14 16 17 19 19 17 18 18 18 16 15 14 15 15 14
24 25 27 26 25 24 23 22 20 19 20 21 22 23 21 19 18 13 12 11 12 11 14 15 15 10 11 15 17 20 18 17 17 17 19 19 17 16 15 11 9 9 11
24 26 26 26 26 26 27 26 24 23 25 26 26 26 24 22 21 18 18 16 16 19 21 19 16 15 14 18 17 17 17 17 20 19 20 21 19 19 17 16 14 12 11
24 25 24 24 24 25 25 26 26 26 25 25 25 25 24 24 23 22 21 20 20 21 19 19 19 18 19 20 20 19 18 16 16 16 17 16 16 16 14 14 12 12 10
21 21 22 22 22 21 22 23 23 21 19 19 20 20 19 21 20 18 17 17 16 15 15 16 16 16 16 17 16 15 15 16 15 13 12 11 10 9 9 10 9 8 7
19 20 19 18 18 18 18 18 17 16 14 15 15 15 16 15 12 11 11 10 11 10 8 10 12 12 11 12 13 12 12 12 13 13 12 12 11 10 9 9 8 6 6
18 17 16 15 15 14 14 14 14 13 11 11 12 11 10 10 9 9 10 9 7 9 8 11 13 13 14 15 15 14 13 13 12 11 11 10 9 8 7 6 5 4 3
16 16 15 15 13 12 11 11 9 8 8 9 10 10 8 8 9 8 8 8 8 9 9 11 11 12 12 13 13 12 11 11 10 9 9 8 7 6 6 5 4 3 3
15 14 14 12 12 12 11 9 8 7 7 8 7 6 7 7 6 5 6 4 6 7 8 8 9 9 9 10 10 9 9 9 8 8 7 7 6 6 4 3 3 3 2
13 12 11 10 10 10 9 9 8 7 7 6 6 5 5 5 4 4 4 4 5 5 7 7 8 8 8 7 7 7 7 6 5 5 5 5 5 4 4 3 2 2 2
12 10 8 8 8 9 9 8 8 7 6 6 6 6 5 4 2 2 2 2 3 4 4 5 5 5 5 5 5 4 4 4 4 4 4 4 3 3 2 2 1 1 0
10 10 9 8 8 8 8 8 7 7 6 6 6 6 5 3 2 1 1 1 2 3 3 4 4 3 3 3 3 3 3 3 3 4 4 4 3 3 2 2 1 0 0
9 9 8 8 7 6 6 5 5 5 5 6 6 6 6 5 4 2 2 2 3 4 5 4 4 4 4 4 4 4 3 3 3 4 3 3 3 2 2 2 2 2 2
10 9 9 8 7 6 5 5 5 5 5 5 6 6 6 6 5 4 3 3 2 3 3 3 3 3 3 3 3 3 3 3 3 3 3 4 4 4 4 3 3 4 4
10 9 9 8 7 6 6 5 6 6 7 7 7 7 7 7 6 6 5 4 4 3 3 3 3 3 3 3 3 4 4 4 4 4 4 4 5 5 5 5 5 5 5
13 11 10 9 8 8 8 7 7 8 9 9 9 9 9 9 9 9 8 7 7 6 5 4 5 5 5 5 5 5 4 4 4 4 5 5 6 6 6 7 7 7 6
Wind_Direction
168 233 253 240 223 227 228 228 202 187 214 263 230 213 214 213 214 217 223 229 237 239 242 246 244 242 244 242 240 243 240 206 196 201 202 206 214 214 218 217 219 220 222
54 147 260 271 208 201 190 196 194 203 219 226 220 208 200 205 210 218 228 235 239 240 244 244 251 254 240 252 243 238 228 205 211 209 199 210 216 214 212 215 216 218 221
65 56 163 205 200 220 211 206 200 189 198 206 194 197 205 211 220 227 231 235 241 245 247 246 248 250 242 247 244 231 214 207 209 204 205 207 211 208 211 212 214 218 219
31 39 113 188 214 211 227 216 199 184 176 195 197 206 208 215 211 218 224 227 237 244 255 249 251 252 251 239 227 227 216 206 208 208 211 213 214 194 197 203 195 200 214
21 29 32 321 231 223 224 202 195 193 188 195 202 203 201 205 209 217 225 229 240 247 254 259 258 265 251 231 229 216 208 202 204 206 214 206 192 193 195 198 205 219 229
44 36 40 17 317 246 205 214 181 183 188 191 192 188 195 211 224 227 225 221 239 247 244 260 257 267 230 223 219 218 208 197 202 209 208 196 204 213 223 223 230 228 222
48 53 57 52 52 49 190 173 181 155 179 179 181 188 194 213 219 222 226 232 229 237 234 247 238 247 215 213 221 216 205 211 210 210 214 210 219 221 224 227 237 238 236
48 52 54 64 62 68 73 108 145 142 149 164 170 176 185 208 209 207 221 219 222 227 213 213 209 217 211 211 206 202 204 206 210 209 217 224 220 231 227 235 230 221 215
45 46 52 55 69 69 67 63 56 80 108 135 150 163 177 184 188 199 199 204 197 197 196 197 194 192 191 193 197 204 217 215 219 215 213 220 227 225 216 212 206 207 198
42 46 49 54 57 64 74 76 72 61 57 89 113 118 127 135 149 170 183 177 178 183 175 178 186 192 198 201 200 205 203 195 204 204 215 214 213 202 199 200 202 204 201
46 49 53 55 56 59 61 67 74 83 80 80 86 88 90 98 106 125 146 161 162 158 152 146 155 160 169 163 170 174 181 165 164 173 166 157 159 166 170 175 182 189 198
49 56 58 57 60 61 64 67 72 76 77 81 84 87 88 89 86 88 102 116 120 137 126 122 116 129 134 138 144 143 138 140 140 139 137 131 130 126 129 134 147 160 165
51 54 61 65 67 69 70 72 74 77 82 83 80 81 82 79 79 79 81 89 104 109 107 106 109 113 119 125 125 122 120 123 127 125 120 117 119 119 120 126 128 129 132
54 55 55 61 67 73 75 76 76 77 77 79 81 83 85 83 80 80 82 85 88 92 95 101 107 112 117 113 113 113 114 116 116 116 122 125 127 127 130 123 122 121 125
49 52 56 56 58 61 68 71 70 70 72 76 79 84 84 82 77 76 79 82 83 88 99 104 105 103 104 105 103 103 109 114 116 114 114 114 117 117 120 118 119 120 129
44 45 47 51 57 61 64 67 65 72 74 76 79 76 80 81 81 79 78 81 86 89 96 103 104 104 103 103 104 108 116 122 126 126 127 128 129 130 127 122 117 113 106
40 44 44 46 50 54 59 65 67 58 40 51 59 60 65 71 65 63 68 71 99 104 138 128 126 129 131 133 133 134 135 134 132 133 134 131 126 120 119 119 120 121 116
36 39 41 42 44 46 47 46 47 48 45 44 41 38 37 42 48 53 63 69 100 119 119 120 119 122 123 125 127 127 129 129 131 132 134 136 135 134 132 132 128 111 84
35 36 37 35 35 35 35 35 33 31 28 25 27 26 35 39 43 44 83 102 107 116 116 121 123 124 124 124 125 127 129 133 138 142 144 144 141 139 139 132 121 112 97
31 30 28 29 31 28 25 24 20 18 19 22 20 26 29 33 42 72 96 108 115 124 127 133 135 134 134 132 129 129 129 133 139 144 146 148 149 148 146 139 120 89 73
18 22 25 24 23 26 28 28 27 24 21 18 18 21 22 32 32 48 80 111 129 136 140 146 148 145 146 145 145 146 150 155 157 158 157 158 156 151 148 144 137 136 85
359 2 4 5 6 8 10 11 14 14 12 10 8 7 17 10 3 347 245 220 209 202 197 191 186 182 178 175 177 177 174 176 177 179 182 180 178 176 178 168 164 169 306
347 349 351 349 347 345 344 347 350 353 354 355 357 357 359 2 2 341 297 262 241 231 226 222 216 210 207 203 203 205 201 193 191 191 189 190 193 205 215 214 221 238 259
344 342 339 333 329 325 323 324 323 324 324 326 329 334 339 345 348 344 335 323 291 263 242 234 226 221 219 220 219 220 220 220 219 218 216 216 221 224 232 238 250 268 283
351 348 342 336 331 324 318 315 315 308 307 309 310 312 316 318 320 322 322 317 305 293 282 261 244 239 232 225 223 227 234 229 232 231 230 233 237 241 244 251 260 272 279
1 359 357 350 337 324 312 298 287 279 289 296 299 303 303 300 296 295 294 292 296 293 281 269 256 247 245 240 237 240 249 257 250 241 236 241 248 251 252 256 260 264 267